Regional Weather Roundup
Issued by NWS Upton, NY

Current Version | Previous Version | Text Only | Print | Product List | Glossary On
Versions: 1 2 3 4 5 6 7 8 9 10 11 12 13 14 15 16 17 18 19 20 21 22 23 24 25 26 27 28 29 30 31 32 33 34 35 36 37 38 39 40 41 42 43 44 45 46 47 48 49 50
000 ASUS41 KOKX 050513 RWROKX Regional Weather Roundup National Weather Service New York NY 1200 AM EST FRI MAR 05 2021 Note: "FAIR" indicates few or no clouds below 12,000 feet with no significant weather and/or obstructions to visibility. NYZ071-072-176-178-NJZ106-104-050600- New York City Metro Area CITY SKY/WX TMP DP RH WIND PRES REMARKS Central Park CLEAR 27 7 42 NW16G33 29.88F WCI 15 Bronx Lehman C N/A 27 10 50 NW20 N/A WCI 13 LaGuardia Arpt CLEAR 28 10 46 NW32G46 29.84F WCI 12 Queens College N/A 28 9 43 NW24G41 N/A WCI 14 Kennedy Intl CLEAR 27 7 42 NW25G35 29.87R WCI 12 Breezy Point N/A N/A N/A N/A NW17G29 N/A Brooklyn Coll N/A 28 10 47 NW24G37 N/A WCI 14 Staten Island N/A 28 9 43 NW15G26 N/A WCI 17 Newark/Liberty CLEAR 27 7 42 NW23G32 29.89F WCI 12 Teterboro CLEAR 26 9 48 NW28G35 29.87F WCI 10 $$ NYZ177-179-078>081-050600- Long Island New York CITY SKY/WX TMP DP RH WIND PRES REMARKS Jones Beach N/A N/A N/A N/A NW26G32 N/A Wantagh N/A 28 9 43 NW15 N/A WCI 17 Hempstead NOT AVBL Matinecock Pt N/A N/A N/A N/A NW23G30 N/A Farmingdale CLEAR 28 6 39 NW12G26 29.84S WCI 18 MacArthur/ISP CLEAR 27 7 42 NW21G28 29.80S WCI 13 Shirley CLEAR 29 7 39 NW18G26 29.81R WCI 16 Mt Sinai Harb N/A N/A N/A N/A NW10G18 N/A Westhampton CLEAR 27 7 42 NW18G35 29.79F WCI 14 East Hampton FAIR 26 6 42 NW17G25 29.77S WCI 13 Southold N/A 28 10 47 NW21G32 N/A WCI 15 Montauk N/A 28 10 46 NW21G31 29.76R WCI 15 $$ NYZ052-065-067-050600- Hudson Valley CITY SKY/WX TMP DP RH WIND PRES REMARKS White Plains CLEAR 24 7 48 NW29G41 29.80F WCI 7 Larchmont Harb N/A N/A N/A N/A W23G31 N/A Croton On Huds N/A N/A N/A N/A NW26G36 N/A Somers N/A 25 9 50 NW13G26 N/A WCI 13 Brewster N/A 25 9 50 NW13G25 N/A WCI 13 Newburgh NOT AVBL Montgomery CLOUDY 23 8 52 NW16G25 29.86F WCI 10 Otisville N/A 23 10 58 NW6 N/A WCI 16 Warwick N/A 23 12 63 NW10 N/A WCI 12 Suffern N/A 25 10 54 NW20G36 N/A WCI 11 Poughkeepsie PTCLDY 25 8 48 W13 29.85F WCI 14 Albany CLOUDY 22 0 38 W22G31 29.88S WCI 6 $$ NJZ001-105-106-008-010-013-015-019>022-104-050600- New Jersey CITY SKY/WX TMP DP RH WIND PRES REMARKS Newark/Liberty CLEAR 27 7 42 NW23G32 29.89F WCI 12 Teterboro CLEAR 26 9 48 NW28G35 29.87F WCI 10 Caldwell CLEAR 27 8 44 NW17G26 29.91F WCI 14 Somerville CLEAR 28 8 43 NW10G22 29.91S WCI 19 Linden FAIR 28 8 42 NW16G24 29.91S WCI 16 Perth Amboy NOT AVBL Sussex CLEAR 23 8 52 VRB6G20 29.91S WCI 16 Andover N/A 23 9 55 N5 29.92S WCI 17 Trenton CLEAR 28 5 37 N14G21 N/A WCI 17 Millville CLEAR 32 14 47 NW10 29.95S WCI 24 Atlantic City N/A 32 12 43 NW17G24 29.92S WCI 21 Wrightstown CLEAR 29 4 34 NW24G33 29.92S WCI 15 Toms River CLEAR 29 13 51 NW9 29.91F WCI 20 Belmar CLEAR 29 9 43 NW14G24 29.90F WCI 18 $$ PAZ047>061-062-071-050600- Eastern Pennsylvania CITY SKY/WX TMP DP RH WIND PRES REMARKS Philadelphia CLEAR 32 8 36 NW14G28 29.96S WCI 22 Allentown CLEAR 26 5 40 NW16G22 29.95S WCI 14 Scranton CLEAR 22 8 55 NW18G26 29.95F WCI 7 $$ CTZ002-004>006-009-010-012-RIZ004-006-007-MAZ004-011-015-050600- Southern New England In CT CITY SKY/WX TMP DP RH WIND PRES REMARKS Bradley Intl PTCLDY 24 2 38 NW18G30 29.78F WCI 10 Hartford CLEAR 26 2 35 NW15G22 29.80F WCI 14 Danbury CLEAR 26 6 42 NW12G21 29.82F WCI 16 Wtrbury/Oxford CLEAR 23 7 50 NW13G29 29.78F WCI 11 Norwalk Harbor N/A N/A N/A N/A NW20G25 N/A Bridgeport NOT AVBL Meriden CLEAR 25 4 40 NW13G22 29.80F WCI 14 New Haven CLEAR 28 7 41 NW16G30 29.80F WCI 16 Chester FAIR N/A N/A N/A NW18G31 29.73F Groton CLEAR 25 4 40 NW22G30 29.74S WCI 10 Willimantic CLEAR 24 3 40 NW13G23 29.76S WCI 12 In RI CITY SKY/WX TMP DP RH WIND PRES REMARKS Providence CLEAR 26 3 37 NW20G26 29.70S WCI 12 Block Island CLEAR 26 8 46 NW21G30 29.73S WCI 12 Westerly CLEAR 24 4 42 NW9G23 29.73R WCI 14 In MA CITY SKY/WX TMP DP RH WIND PRES REMARKS Boston PTCLDY 27 5 39 NW18G36 29.67S WCI 14 Worcester PTCLDY 21 3 45 NW18G30 29.65S WCI 6 Westfield CLEAR 23 3 42 NW18G35 29.76F WCI 9 Provincetown CLEAR 28 15 58 NW28G36 29.65R WCI 13 Nantucket N/A N/A N/A N/A MISG N/A $$ ANZ330-335-338-340-345-350-353-355-050600- Coastal Marine Observations STATION/POSITION TIME SKY/WX TEMP WIND PRES VSBY WAVE AIR SEA DIR/SP/G HT/PER (UTC) (F) (DEG/KT/KT) (MB) (MI) (FT/S) NY Harb Entrance 0450 42 310/ 27/ 35 1010.3 6/ 5 20 S Fire Island 0450 40 310/ 27/ 33 1009.3 7/ 6 Great South Bay NOT AVBL 23 SSW Montauk P 0450 31 42 320/ 29/ 37 1007.6 7/ 6 15 E Barnegat Li 0456 41 N/A 6/ 6 Hudson Canyon NOT AVBL Kings Point 0430 28 10/ 17/ 23 1012.2 Execution Rocks 0430 28 300/ 23/ 33 N/A Western LI Sound NOT AVBL Central LI Sound 0400 30 36 290/ 29/ 39 N/A 5/ 5 Robbins Reef 0430 28 320/ 23/ 29 1011.8 $$ >>>>>>>>>>>>>>>>>>>>>>>>>>>> KEY <<<<<<<<<<<<<<<<<<<<<<<<<<< > < > SKY/WX - Sky Condition/Present Weather < > TMP - Temperature in Fahrenheit < > DP - Dew Point in Fahrenheit < > RH - Relative Humidity in Percent < > WIND - Direction (from) and Speed in MPH < > PRES - Mean Sea Level Pressure (inches of Hg) < > WCI - Wind Chill Index < > VSB - Visibility in Miles < > HX - Heat Index < > TC - Temperature in Celsius < > VRB - Variable Wind Direction < > < >>>>>>>>>>>>>>>>>>>>>>>>>>>> KEY <<<<<<<<<<<<<<<<<<<<<<<<<<<

USA.gov is the U.S. government's official web portal to all federal, state and local government web resources and services.